Location: Newark
(50.4348°N, 30.5552°E)
Time: 04:05:37
(UTC+00:00)

Altair - Pass Details

Date: 21 January 2020
Orbit: 1502 x 1682 km, 47.2° (Epoch: 17 February)

Event Time Altitude Azimuth Distance (km) Brightness Sun altitude
Rises 07:28:34 0° 220° (SW) 4,892 10.3 11.2°
Reaches altitude 10° 07:31:52 10° 214° (SW) 3,920 9.9 11.5°
Maximum altitude 07:41:13 45° 146° (SE) 2,175 9.5 12.4°
Drops below altitude 10° 07:50:36 10° 79° (E) 3,934 10.0 13.3°
Sets 07:53:54 0° 73° (ENE) 4,910 10.4 13.5°
